Burnet, TX

6:50 AM CDT on June 25, 2017 (GMT -0500)
Burnet Municipal-Craddock

Weather History for KBMQ - January, 2014

Change the Weather History Date:

Sunday, January 12, 2014

  Actual Average Record
Temperature  
Mean Temperature 60 °F -  
Max Temperature 77 °F 57 °F 77 °F (2014)
Min Temperature 42 °F 37 °F 21 °F (1997)
Degree Days  
Heating Degree Days 6    
Growing Degree Days 10 (Base 50)    
Moisture  
Dew Point 43 °F    
Average Humidity 52    
Maximum Humidity 63    
Minimum Humidity 38    
Precipitation  
Precipitation 0.00 in - - ()
Sea Level Pressure  
Sea Level Pressure 29.98 in    
Wind  
Wind Speed 6 mph (South)    
Max Wind Speed 22 mph    
Max Gust Speed 33 mph    
Visibility 10 miles    
Events      
Averages and records for this station are not official NWS values.
T = Trace of Precipitation, MM = Missing Value Source: NWS Daily Summary

Daily Weather History Graph

Daily Weather History Graph

Search for Another Location

Airport or City:

Trip Planner

Search our weather history database for the weather conditions in past years. The results will help you decide how hot, cold, wet, or windy it might be!

Date:

Astronomy

Jan. 12, 2014 Rise Set
Actual Time 7:31 AM CST 5:51 PM CST
Civil Twilight 7:05 AM CST 6:17 PM CST
Nautical Twilight 6:35 AM CST 6:47 PM CST
Astronomical Twilight 6:06 AM CST 7:16 PM CST
Moon 3:19 PM CST (1/12) 4:33 AM CST (1/12)
Length of Visible Light 11h 12m
Length of Day
10h 20m
Waxing Gibbous, 90% of the Moon is Illuminated
Jan 12
Waxing Gibbous
Jan 15
Full
Jan 23
Last Quarter
Jan 30
New
Feb 6
First Quarter

Hourly Weather History & Observations

Time (CST) Temp. Windchill Dew Point Humidity Pressure Visibility Wind Dir Wind Speed Gust Speed Precip Events Conditions
12:53 AM 45.0 °F - 30.0 °F 56% 30.10 in 10.0 mi Calm Calm - N/A   Clear
1:53 AM 42.1 °F - 30.0 °F 62% 30.09 in 10.0 mi Calm Calm - N/A   Clear
2:53 AM 44.1 °F 42.5 °F 30.0 °F 58% 30.09 in 10.0 mi SSW 3.5 mph - N/A   Clear
3:53 AM 45.0 °F 43.5 °F 30.0 °F 56% 30.07 in 10.0 mi South 3.5 mph - N/A   Clear
4:53 AM 43.0 °F 39.5 °F 30.9 °F 62% 30.05 in 10.0 mi South 5.8 mph - N/A   Clear
5:53 AM 43.0 °F 41.3 °F 30.9 °F 62% 30.06 in 10.0 mi South 3.5 mph - N/A   Clear
6:53 AM 45.0 °F 43.5 °F 30.0 °F 56% 30.06 in 10.0 mi South 3.5 mph - N/A   Clear
7:53 AM 46.9 °F - 30.9 °F 54% 30.07 in 10.0 mi South 6.9 mph - N/A   Clear
8:53 AM 52.0 °F - 32.0 °F 47% 30.09 in 10.0 mi South 9.2 mph - N/A   Clear
9:53 AM 57.9 °F - 34.0 °F 41% 30.10 in 10.0 mi SSW 10.4 mph - N/A   Clear
10:53 AM 63.0 °F - 37.0 °F 38% 30.07 in 10.0 mi South 9.2 mph - N/A   Clear
11:53 AM 64.0 °F - 39.0 °F 40% 30.04 in 10.0 mi South 21.9 mph 33.4 mph N/A   Clear
12:53 PM 64.0 °F - 44.1 °F 48% 29.99 in 10.0 mi South 16.1 mph 27.6 mph N/A   Clear
1:53 PM 64.0 °F - 48.9 °F 58% 29.95 in 10.0 mi South 12.7 mph - N/A   Clear
2:53 PM 64.9 °F - 51.1 °F 61% 29.92 in 10.0 mi South 15.0 mph 25.3 mph N/A   Clear
3:53 PM 63.0 °F - 50.0 °F 63% 29.92 in 10.0 mi South 12.7 mph 17.3 mph N/A   Clear
4:53 PM 71.1 °F - 51.1 °F 49% 29.90 in 10.0 mi South 8.1 mph - N/A   Clear
5:53 PM 77.0 °F - 52.0 °F 42% 29.90 in 10.0 mi South 6.9 mph - 0.00 in   Mostly Cloudy
6:53 PM 75.0 °F - 52.0 °F 44% 29.89 in 10.0 mi South 9.2 mph 18.4 mph N/A   Mostly Cloudy
7:53 PM 75.9 °F - 53.1 °F 45% 29.88 in 10.0 mi South 9.2 mph - 0.00 in   Clear
8:53 PM 75.9 °F - 53.1 °F 45% 29.87 in 10.0 mi South 10.4 mph 16.1 mph N/A   Clear
9:53 PM 73.0 °F - 54.0 °F 51% 29.89 in 10.0 mi South 11.5 mph - N/A   Clear
10:12 PM 72.0 °F - 54.0 °F 53% 29.93 in 10.0 mi Variable 6.9 mph 18.4 mph N/A   Mostly Cloudy
10:53 PM 75.0 °F - 55.9 °F 51% 29.88 in 10.0 mi South 10.4 mph - N/A   Overcast
11:38 PM 75.9 °F - 57.0 °F 52% 29.90 in 8.0 mi South 11.5 mph - N/A   Overcast
11:53 PM 73.9 °F - 57.0 °F 55% 29.86 in 8.0 mi South 10.4 mph - N/A   Scattered Clouds